Погода в Куско

Перу     13°31′43″S   71°58′45″W
темп.,
°C
ветер,
м/с
пор.,
м/с
влажн.,
%
обл.,
%
осадки,
мм/ч
давл.,
гПа
погр.,
м
5 августа, чт
чт501:00+3ссз11794 0.0 1026147
04:00+2з00814 0.0 1025119
07:00+3юв01772 0.0 1027165
10:00+10ссз11370 0.0 10231103
13:00+14зсз231926 0.0 10172747
16:00+14сз432588 0.0 10142542
19:00+9ссз34500 0.0 1019282
22:00+6ссз22680 0.0 1024156
6 августа, пт
пт601:00+5ссз11720 0.0 102391
04:00+4зсз01751 0.0 102283
07:00+5ю11711 0.0 1025121
10:00+11ссз01351 0.0 10211070
13:00+15сз13186 0.0 10142778
16:00+15ссз542753 0.0 10122438
19:00+9с34510 0.0 1019353
22:00+6с22700 0.0 1023182
7 августа, сб
сб701:00+4ссз11760 0.0 1023123
04:00+3зсз11760 0.0 102397
07:00+4ссз01650 0.0 1025141
10:00+11сз01390 0.0 1021959
13:00+15сз22170 0.0 10142212
16:00+15ссз442732 0.0 10102403
19:00+9ссв34590 0.0 1018399
22:00+7с22690 0.0 1021225
8 августа, вс
вс801:00+5ссз11760 0.0 1021163
04:00+4сз00820 0.0 1021146
07:00+5юз00780 0.0 1023187
10:00+11з01470 0.0 10201080
13:00+15сз13255 0.0 10142404
16:00+15с443040 0.0 10112173
19:00+9ссв34570 0.0 1018418
22:00+7ссв22742 0.0 1022259
9 августа, пн
пн901:00+5с128114 0.0 1023210
04:00+3ссз11831 0.0 1023163
07:00+5ссв11761 0.0 1025201
10:00+11с11464 0.0 10221150
13:00+15сз23242 0.0 10152264
16:00+15с443388 0.0 10132129
19:00+9ссв34613 0.1 1020450
22:00+7ссв23696 0.0 1023305